Wind_Speed
36 34 33 32 31 32 31 31 31 32 31 29 30 29 29 28 26 26 26 25 23 23 23 23 23 25 25 25 25 25 26 25 26 26 27 29 31 34 36 38 38 38 37 39
37 35 33 33 33 33 32 32 33 34 33 33 33 32 31 31 29 29 29 28 27 26 26 26 27 27 28 28 28 28 29 29 29 30 30 32 34 36 39 40 40 40 40 40
37 35 34 34 34 33 33 32 33 35 36 36 35 34 34 34 33 32 32 31 31 30 30 30 30 30 30 30 30 31 31 31 31 32 33 34 37 39 41 41 42 43 41 37
38 37 35 34 34 34 33 33 33 35 36 38 39 37 36 38 37 36 36 35 35 33 32 32 32 32 31 31 31 32 32 33 33 34 35 37 39 40 42 43 42 42 42 39
36 36 35 34 33 33 33 33 33 35 36 38 38 38 35 39 38 39 39 38 37 36 34 33 33 32 31 31 32 33 34 35 36 37 38 39 41 42 43 42 42 42 41 39
34 34 34 34 33 33 33 33 33 34 35 38 37 37 34 41 38 38 39 39 38 37 36 34 33 32 31 32 33 34 36 37 38 39 40 41 42 42 42 42 42 42 42 39
31 32 33 33 33 34 33 33 32 32 34 33 35 34 35 40 37 36 36 37 36 35 34 33 32 32 32 33 34 36 37 38 39 40 41 42 42 42 42 42 42 41 41 41
24 27 29 30 30 32 32 32 30 25 24 25 32 30 36 35 34 32 32 32 32 32 31 30 30 30 31 32 33 34 36 37 38 40 41 41 42 42 42 42 42 42 42 42
19 21 24 26 28 29 29 30 28 27 25 21 22 30 32 31 31 29 29 28 28 28 28 28 28 29 30 31 32 33 35 37 38 40 41 42 42 42 43 43 43 43 45 46
17 17 20 23 26 28 28 27 28 29 25 21 21 24 26 28 28 27 27 26 25 25 25 26 27 28 29 31 32 34 36 37 39 40 41 42 43 44 44 45 45 47 49 50
15 15 16 19 22 23 26 28 28 26 23 20 18 21 27 25 25 24 24 24 24 24 24 25 27 28 30 32 33 35 36 38 39 41 42 43 44 45 46 48 49 51 52 53
14 14 14 17 20 22 23 23 25 24 24 24 20 23 25 24 24 24 24 24 24 25 25 27 28 30 31 33 34 36 37 39 40 42 44 45 47 49 51 53 54 56 57 58
13 14 14 16 19 22 24 25 25 25 24 23 21 25 26 25 25 25 26 26 27 28 29 30 32 33 34 36 37 38 40 42 43 45 47 48 50 52 54 56 58 60 61 61
13 14 15 15 17 21 23 24 25 25 23 23 23 28 28 27 27 28 28 29 30 31 33 35 36 37 38 38 40 41 42 44 46 48 50 51 54 56 57 59 60 61 61 61
13 15 17 18 20 21 23 25 26 27 26 26 27 30 31 31 31 31 32 33 34 35 36 37 38 39 40 41 43 44 46 48 49 51 52 54 56 58 59 60 60 60 61 60
14 16 17 19 20 22 24 26 27 28 29 30 31 32 33 33 33 34 35 36 37 38 39 39 40 41 42 43 45 47 48 49 51 53 54 55 57 58 59 59 59 59 59 59
15 16 18 20 21 22 26 27 28 30 31 32 33 34 34 35 35 36 36 37 39 39 40 41 42 43 44 45 46 48 49 50 52 54 55 55 56 57 57 57 57 57 56 56
14 16 18 20 21 24 27 26 28 30 32 33 34 34 35 36 37 37 37 38 38 39 39 40 41 42 43 44 46 48 49 50 51 53 53 54 54 55 54 54 54 53 52 51
12 14 17 19 21 24 25 26 27 28 30 31 32 33 34 35 36 35 36 36 37 37 39 40 41 42 43 44 45 47 48 49 50 50 51 52 52 51 50 50 49 49 48 48
13 13 15 16 18 22 23 24 25 26 28 28 29 30 31 32 32 33 33 34 36 37 38 39 40 41 42 43 44 45 46 47 48 49 49 48 47 47 46 46 45 45 45 45
12 13 14 15 17 20 19 19 20 22 24 24 25 26 27 28 29 30 32 33 35 36 37 38 39 40 41 42 43 44 45 45 45 45 44 44 44 43 43 43 43 44 44 44
12 13 13 14 16 17 17 17 18 19 20 21 22 23 24 25 26 28 30 31 32 34 35 36 37 38 39 40 41 41 41 41 41 41 40 40 41 41 42 42 42 42 42 42
13 13 13 14 15 16 16 16 17 18 18 20 21 21 22 24 25 27 28 29 30 31 33 34 35 36 37 37 37 37 37 37 37 38 38 39 40 41 41 41 40 39 38 36
13 13 13 13 14 15 15 15 16 17 18 19 20 21 22 24 25 26 27 28 29 30 30 31 32 32 32 32 32 32 33 34 36 37 38 39 39 39 38 36 34 32 30 28
13 13 13 13 13 14 15 15 16 17 18 19 20 21 22 22 23 24 25 25 25 26 26 26 26 26 26 27 28 30 32 34 35 36 36 36 35 33 31 28 26 24 22 20
13 12 13 13 13 13 14 14 15 16 17 18 19 19 19 20 20 20 20 20 20 21 21 21 21 22 23 25 28 30 32 33 33 33 32 30 28 25 23 20 18 17 16 14
Wind_Direction
232 234 235 235 234 232 230 229 229 233 236 235 236 235 236 239 239 241 243 246 250 252 254 256 260 262 265 268 269 272 275 275 277 281 285 288 290 292 294 297 295 298 298 300
231 233 234 235 234 234 232 229 229 233 236 236 238 239 239 242 243 244 246 248 251 253 256 260 264 266 266 267 268 270 273 275 277 280 283 286 289 291 293 298 299 301 303 302
231 231 233 234 234 234 233 231 230 231 235 238 241 243 246 247 247 248 249 251 254 257 259 263 265 267 267 266 266 268 270 273 275 279 281 284 287 290 294 298 301 302 306 307
227 229 230 232 232 232 233 232 231 232 234 237 240 240 247 247 248 251 253 255 258 260 261 264 265 266 266 264 264 266 268 271 274 277 280 284 287 290 294 298 301 305 307 310
226 228 229 231 232 231 232 231 231 232 234 236 243 240 242 251 251 253 256 258 260 262 264 264 264 264 263 262 262 263 266 269 273 276 280 283 286 289 292 296 298 302 306 309
223 226 228 229 229 230 230 231 232 234 236 238 241 244 242 250 252 254 256 258 261 263 264 265 264 263 261 260 261 262 264 268 271 275 278 281 283 286 289 292 296 300 304 306
222 225 226 227 228 229 229 230 232 235 238 241 243 243 242 250 254 254 255 257 260 262 263 263 263 260 259 260 260 261 263 266 270 273 276 279 281 284 288 291 295 299 302 304
223 227 228 228 228 230 230 230 228 231 240 243 246 243 246 251 254 254 255 256 257 259 259 260 259 258 258 259 259 259 261 264 268 271 274 277 280 284 288 291 295 298 300 302
217 226 229 228 228 227 228 228 227 229 231 230 243 246 248 250 252 254 255 256 257 257 257 257 256 257 258 258 259 259 261 263 266 270 273 277 281 285 289 292 295 297 298 300
209 218 227 228 227 227 225 226 226 227 230 231 240 252 252 251 253 256 258 258 258 257 257 257 257 257 257 258 258 260 262 265 268 271 275 279 283 286 290 293 296 298 299 300
204 212 220 224 224 226 225 225 226 227 227 228 238 247 252 253 255 257 259 259 259 259 257 257 257 258 259 260 261 263 266 269 271 274 277 281 285 287 290 293 296 298 299 299
207 209 214 220 221 220 222 224 227 228 234 234 228 246 253 254 256 258 259 259 259 259 258 259 260 261 263 264 267 268 271 273 275 278 280 283 286 288 290 293 295 297 298 299
206 210 214 223 224 221 221 222 225 231 235 241 239 248 253 256 257 259 260 261 261 262 262 263 264 266 268 270 271 273 275 277 279 281 283 285 287 289 291 292 294 296 297 297
212 213 210 217 226 229 228 229 231 234 239 246 245 248 255 258 259 261 262 263 264 265 267 268 269 270 271 273 275 277 279 281 283 284 285 287 288 290 291 293 294 295 295 296
225 224 224 225 230 233 233 234 236 239 240 244 249 255 259 260 261 262 264 266 267 268 270 271 272 273 275 277 279 281 283 284 285 286 287 289 290 291 292 293 293 294 294 295
236 237 237 238 238 239 240 241 242 244 247 249 253 257 260 261 263 265 267 268 269 270 271 272 274 275 277 280 282 283 284 285 287 288 289 290 291 291 292 292 293 293 293 294
246 247 246 248 249 250 250 247 249 249 250 251 253 257 259 262 264 266 268 268 270 272 274 276 276 277 279 281 282 283 285 287 288 289 289 290 291 292 292 293 293 293 293 294
257 252 251 254 254 252 255 255 255 256 256 256 257 260 262 264 266 267 269 270 272 273 275 275 277 279 281 283 284 286 287 288 289 290 291 291 292 293 293 293 293 293 293 293
270 264 260 258 257 258 257 256 257 259 260 260 261 263 264 264 266 267 269 270 271 273 275 278 281 282 284 286 287 288 289 291 291 292 293 293 293 294 294 293 293 292 292 293
281 273 267 263 260 260 262 258 257 259 260 261 261 262 262 263 265 266 268 271 273 275 278 280 282 284 286 288 289 290 291 292 293 293 294 294 294 294 294 294 294 294 294 294
288 281 274 268 264 264 266 263 260 258 258 259 260 262 263 264 267 270 272 273 275 278 280 281 283 286 288 290 292 293 294 294 294 295 295 295 295 295 295 295 295 295 295 295
296 288 280 273 269 267 267 264 260 259 260 261 263 263 265 267 268 271 273 276 278 281 283 285 287 289 291 292 293 294 295 296 296 296 296 296 296 296 296 296 296 296 297 296
300 294 286 278 272 271 269 267 264 263 262 262 263 265 267 270 272 275 278 280 283 285 287 289 290 292 294 295 296 297 297 298 298 298 299 299 299 299 299 299 299 298 298 298
304 298 291 283 277 272 270 268 267 267 267 267 267 269 272 274 276 278 281 284 286 288 290 292 293 295 296 297 298 299 300 301 301 302 302 302 302 302 301 301 300 300 300 300
306 302 294 286 280 275 272 271 271 272 272 273 274 275 277 278 279 282 285 286 288 291 294 296 298 299 300 302 303 305 306 306 307 307 307 306 306 305 305 305 304 304 303 304
305 299 293 288 282 276 274 274 276 277 279 280 279 279 279 282 284 286 288 289 292 296 299 301 303 305 307 310 311 312 313 313 313 312 312 311 311 311 310 309 308 308 310 311
Height
5803 5809 5814 5818 5822 5826 5829 5833 5836 5839 5841 5845 5848 5852 5854 5857 5861 5863 5866 5868 5870 5872 5873 5874 5875 5875 5875 5875 5875 5874 5873 5872 5870 5868 5867 5865 5863 5860 5858 5855 5852 5848 5844 5840
5797 5802 5807 5810 5815 5819 5823 5828 5831 5833 5836 5840 5843 5846 5849 5852 5855 5857 5860 5862 5864 5866 5868 5868 5869 5869 5870 5870 5870 5869 5868 5867 5865 5864 5862 5860 5857 5855 5852 5849 5846 5843 5839 5834
5789 5795 5799 5803 5808 5813 5818 5822 5826 5828 5830 5834 5838 5842 5845 5846 5849 5851 5853 5855 5858 5860 5861 5862 5862 5863 5863 5864 5864 5863 5862 5861 5860 5858 5856 5854 5852 5849 5845 5843 5840 5837 5833 5828
5780 5785 5791 5796 5801 5806 5811 5816 5820 5822 5826 5829 5832 5837 5838 5840 5842 5844 5846 5848 5850 5852 5854 5855 5855 5856 5856 5857 5857 5857 5856 5856 5854 5853 5851 5848 5846 5843 5840 5836 5833 5830 5826 5822
5774 5779 5784 5790 5795 5800 5805 5809 5813 5816 5820 5823 5825 5830 5835 5831 5834 5836 5838 5840 5842 5844 5846 5847 5847 5848 5849 5849 5850 5850 5850 5849 5848 5846 5844 5842 5839 5836 5833 5830 5827 5824 5821 5817
5767 5772 5777 5783 5788 5793 5798 5804 5807 5810 5814 5817 5820 5823 5827 5824 5826 5828 5830 5832 5834 5836 5837 5838 5839 5840 5841 5842 5842 5842 5842 5841 5840 5839 5837 5834 5832 5829 5826 5823 5820 5817 5814 5811
5762 5766 5771 5777 5782 5787 5792 5798 5803 5806 5808 5812 5813 5816 5819 5816 5819 5822 5823 5824 5826 5828 5829 5830 5831 5832 5833 5834 5834 5834 5834 5833 5832 5830 5828 5826 5823 5820 5818 5815 5812 5809 5806 5802
5759 5763 5767 5772 5777 5782 5787 5793 5799 5803 5806 5808 5806 5809 5808 5811 5812 5814 5816 5817 5819 5820 5821 5822 5823 5824 5825 5826 5826 5826 5825 5824 5823 5821 5819 5816 5814 5811 5809 5806 5803 5799 5796 5793
5757 5761 5763 5767 5772 5777 5781 5785 5791 5796 5798 5803 5803 5801 5802 5804 5805 5807 5809 5810 5812 5813 5814 5815 5816 5817 5817 5818 5818 5817 5817 5816 5814 5812 5810 5808 5805 5802 5799 5795 5792 5789 5786 5783
5754 5758 5760 5763 5767 5771 5776 5780 5784 5788 5792 5797 5799 5797 5798 5798 5800 5801 5803 5804 5805 5806 5807 5808 5809 5809 5810 5810 5809 5809 5808 5807 5805 5803 5801 5798 5795 5792 5788 5785 5781 5778 5775 5771
5751 5755 5758 5760 5763 5767 5771 5775 5778 5783 5787 5792 5796 5797 5791 5793 5794 5796 5797 5798 5799 5799 5800 5801 5801 5801 5801 5801 5801 5800 5799 5798 5796 5793 5791 5788 5785 5781 5777 5773 5770 5766 5762 5758
5750 5753 5756 5758 5760 5763 5767 5770 5774 5778 5781 5784 5789 5791 5787 5787 5788 5790 5791 5791 5792 5793 5793 5793 5793 5793 5793 5792 5792 5791 5789 5787 5785 5782 5780 5777 5773 5770 5766 5762 5757 5753 5749 5744
5748 5751 5754 5757 5759 5760 5762 5765 5769 5772 5776 5778 5782 5784 5781 5781 5782 5783 5784 5785 5785 5785 5786 5785 5785 5784 5784 5783 5782 5780 5779 5776 5774 5771 5768 5765 5761 5757 5753 5749 5744 5739 5735 5730
5747 5749 5753 5757 5757 5757 5760 5762 5765 5768 5771 5773 5775 5774 5774 5775 5776 5776 5777 5777 5777 5777 5777 5776 5776 5775 5774 5773 5771 5769 5767 5765 5762 5759 5756 5752 5748 5744 5740 5735 5730 5725 5720 5715
5744 5746 5748 5750 5751 5753 5755 5758 5760 5762 5764 5767 5767 5766 5767 5768 5769 5769 5769 5769 5768 5768 5767 5767 5765 5764 5763 5761 5760 5757 5755 5752 5749 5746 5742 5738 5734 5730 5725 5720 5715 5710 5705 5700
5740 5742 5744 5745 5747 5748 5750 5752 5754 5755 5757 5759 5759 5759 5760 5760 5760 5760 5760 5759 5759 5758 5757 5756 5755 5753 5751 5750 5748 5745 5742 5739 5736 5732 5728 5724 5719 5715 5710 5705 5700 5695 5689 5684
5736 5738 5739 5741 5742 5743 5744 5746 5747 5748 5749 5751 5751 5752 5751 5752 5752 5751 5750 5750 5748 5747 5746 5745 5743 5742 5740 5737 5735 5732 5728 5725 5722 5718 5714 5709 5704 5700 5695 5689 5684 5679 5674 5670
5731 5732 5734 5735 5737 5738 5738 5739 5739 5740 5741 5741 5742 5742 5742 5743 5742 5742 5741 5740 5739 5738 5736 5734 5732 5730 5728 5725 5722 5719 5716 5712 5707 5703 5699 5694 5690 5685 5680 5675 5670 5665 5660 5656
5727 5727 5728 5729 5730 5729 5730 5731 5731 5732 5732 5732 5733 5733 5733 5733 5733 5732 5732 5731 5730 5728 5726 5724 5722 5720 5717 5714 5710 5707 5703 5698 5694 5690 5685 5680 5675 5671 5666 5661 5656 5651 5647 5642
5722 5722 5723 5723 5723 5723 5723 5723 5723 5725 5724 5724 5724 5724 5724 5724 5724 5724 5723 5722 5720 5718 5716 5714 5712 5709 5706 5702 5698 5694 5690 5686 5681 5677 5672 5667 5662 5657 5653 5648 5644 5639 5634 5630
5718 5717 5717 5717 5717 5716 5716 5715 5717 5718 5717 5716 5716 5716 5716 5716 5716 5715 5714 5712 5711 5709 5707 5705 5702 5699 5695 5691 5687 5683 5678 5674 5669 5664 5659 5654 5650 5645 5641 5636 5632 5627 5622 5618
5713 5712 5712 5711 5711 5712 5710 5710 5711 5710 5709 5709 5709 5709 5709 5708 5708 5707 5705 5704 5702 5700 5698 5695 5692 5689 5685 5681 5677 5672 5668 5663 5658 5653 5648 5644 5639 5634 5629 5625 5620 5615 5611 5607
5709 5708 5707 5707 5707 5705 5704 5704 5704 5704 5703 5703 5703 5703 5702 5702 5701 5699 5698 5696 5694 5692 5689 5687 5683 5680 5676 5672 5667 5663 5658 5653 5648 5643 5638 5633 5628 5623 5618 5613 5609 5604 5600 5596
5705 5703 5702 5701 5700 5699 5699 5699 5698 5698 5698 5697 5697 5697 5696 5695 5694 5693 5691 5689 5687 5684 5681 5679 5675 5672 5668 5664 5659 5654 5650 5644 5639 5634 5628 5623 5617 5612 5607 5603 5599 5595 5591 5588
5701 5699 5698 5697 5696 5695 5694 5694 5693 5693 5692 5692 5691 5690 5689 5688 5687 5686 5684 5682 5680 5677 5675 5672 5669 5665 5661 5657 5652 5647 5642 5636 5630 5624 5618 5613 5608 5603 5598 5595 5591 5588 5585 5582
5697 5695 5694 5693 5692 5691 5690 5689 5689 5688 5687 5687 5686 5685 5684 5682 5681 5680 5678 5676 5674 5672 5669 5666 5663 5660 5655 5651 5646 5640 5634 5628 5622 5616 5610 5605 5600 5596 5592 5589 5586 5583 5581 5578